GW4500 Weather Reports


time (UTC)temp
C
wind
direction
speed
KPH
gust
KPH
rain 1hr
cm
rain 24hr
cm
rain mn
cm
humidity
%
barometer
mb
20260510045454 15 216 4.8 8.0 0.00 0.00 0.00 76 1014.2
20260510044950 15 214 9.7 11.3 0.00 0.00 0.00 76 1014.2
20260510044447 15 228 6.4 9.7 0.00 0.00 0.00 76 1014.4
20260510043944 15 252 12.9 16.1 0.00 0.00 0.00 76 1014.3
20260510043439 15 184 11.3 14.5 0.00 0.00 0.00 76 1014.1
20260510042938 15 187 6.4 9.7 0.00 0.00 0.00 75 1014.1
20260510042434 15 228 6.4 9.7 0.00 0.00 0.00 76 1014.2
20260510041929 15 159 11.3 12.9 0.00 0.00 0.00 76 1014.2
20260510041427 15 229 9.7 12.9 0.00 0.00 0.00 75 1013.9
20260510040925 15 228 4.8 4.8 0.00 0.00 0.00 76 1014.1
20260510040422 15 232 6.4 8.0 0.00 0.00 0.00 75 1013.9
20260510035917 15 212 6.4 9.7 0.00 0.36 0.36 75 1013.9
20260510035414 15 177 11.3 12.9 0.00 0.36 0.36 75 1014.1
20260510034913 15 194 6.4 9.7 0.00 0.36 0.36 75 1013.9
20260510034412 15 216 4.8 4.8 0.00 0.36 0.36 75 1013.8
20260510033908 15 235 9.7 11.3 0.00 0.36 0.36 74 1013.8
20260510033405 16 240 19.3 22.5 0.00 0.36 0.36 73 1013.7
20260510032901 16 248 11.3 14.5 0.00 0.36 0.36 73 1013.6
20260510032358 15 228 11.3 14.5 0.00 0.36 0.36 73 1013.6
20260510031853 15 229 4.8 4.8 0.00 0.36 0.36 73 1013.6
20260510031349 16 235 8.0 14.5 0.00 0.36 0.36 72 1013.7
20260510030848 16 223 6.4 9.7 0.00 0.36 0.36 72 1013.5
20260510030346 16 225 12.9 16.1 0.00 0.36 0.36 72 1013.4
20260510025843 16 218 4.8 8.0 0.00 0.36 0.36 72 1013.4
20260510025340 16 230 4.8 8.0 0.00 0.36 0.36 71 1013.3
20260510024837 16 183 11.3 12.9 0.00 0.36 0.36 71 1013.3
20260510024334 16 235 14.5 17.7 0.00 0.36 0.36 71 1013.5
20260510023830 16 199 6.4 9.7 0.00 0.36 0.36 71 1013.3
20260510023326 16 188 6.4 11.3 0.00 0.36 0.36 71 1013.2
20260510022824 16 213 8.0 11.3 0.00 0.36 0.36 71 1013.1
20260510022323 16 222 8.0 11.3 0.00 0.36 0.36 71 1013.3
20260510021822 16 194 6.4 8.0 0.00 0.36 0.36 71 1013.4
20260510021321 16 184 8.0 9.7 0.00 0.36 0.36 71 1013.1
20260510020816 16 231 9.7 11.3 0.00 0.36 0.36 71 1013.0
20260510020311 16 209 6.4 8.0 0.00 0.36 0.36 71 1013.1
20260510015807 16 235 4.8 4.8 0.00 0.36 0.36 71 1012.9
20260510015306 16 225 8.0 12.9 0.00 0.36 0.36 71 1012.9
20260510014759 16 217 4.8 4.8 0.00 0.36 0.36 70 1012.9
20260510014256 16 217 8.0 9.7 0.00 0.36 0.36 70 1012.7
20260510013753 16 200 8.0 9.7 0.00 0.36 0.36 70 1012.8
20260510013248 16 214 9.7 11.3 0.00 0.36 0.36 70 1012.6
20260510012743 16 204 6.4 8.0 0.00 0.36 0.36 71 1012.5
20260510012238 16 211 6.4 9.7 0.00 0.36 0.36 71 1012.5
20260510011737 16 203 3.2 3.2 0.00 0.36 0.36 71 1012.6
20260510011233 16 202 4.8 8.0 0.00 0.36 0.36 70 1012.5
20260510010730 16 223 8.0 9.7 0.00 0.36 0.36 70 1012.5
20260510010226 16 212 8.0 9.7 0.00 0.36 0.36 70 1012.3
20260510005723 16 186 4.8 4.8 0.00 0.36 0.36 70 1012.4
20260510005220 16 228 3.2 4.8 0.00 0.36 0.36 70 1012.4
20260510004718 16 232 4.8 4.8 0.00 0.36 0.36 70 1012.2
20260510004216 16 220 8.0 9.7 0.00 0.36 0.36 70 1012.2
20260510003713 16 217 3.2 3.2 0.00 0.36 0.36 69 1012.2
20260510003209 16 200 4.8 8.0 0.00 0.36 0.36 69 1012.1
20260510002708 16 212 4.8 4.8 0.00 0.36 0.36 69 1012.2
20260510002205 16 210 4.8 4.8 0.00 0.36 0.36 69 1012.0
20260510001702 16 227 6.4 9.7 0.00 0.36 0.36 68 1011.9
20260510001202 16 202 1.6 3.2 0.00 0.36 0.36 68 1012.0
20260510000702 16 206 4.8 4.8 0.00 0.36 0.36 68 1011.7
20260510000159 16 207 4.8 8.0 0.00 0.36 0.36 67 1011.9
20260509235656 17 225 3.2 3.2 0.00 0.36 0.36 67 1011.9
20260509235152 17 249 8.0 9.7 0.00 0.36 0.36 66 1011.4
20260509234648 17 242 8.0 9.7 0.00 0.36 0.36 65 1011.3
20260509234146 17 243 6.4 8.0 0.00 0.36 0.36 65 1011.6
20260509233644 17 230 1.6 3.2 0.00 0.36 0.36 65 1011.5
20260509233141 17 231 6.4 9.7 0.00 0.36 0.36 64 1011.7
20260509232637 17 231 3.2 3.2 0.00 0.36 0.36 63 1011.3
20260509232134 17 207 6.4 8.0 0.00 0.36 0.36 63 1011.6
20260509231630 17 218 8.0 9.7 0.00 0.36 0.36 63 1011.5
20260509231128 17 256 9.7 11.3 0.00 0.36 0.36 63 1011.4
20260509230625 17 227 11.3 14.5 0.00 0.36 0.36 63 1011.4
20260509230122 17 224 9.7 12.9 0.00 0.36 0.36 63 1011.5
20260509225618 17 222 3.2 3.2 0.00 0.36 0.36 63 1011.6
20260509225113 17 200 8.0 16.1 0.00 0.36 0.36 63 1011.5
20260509224608 18 238 12.9 14.5 0.00 0.36 0.36 62 1011.7
20260509224106 18 231 6.4 8.0 0.00 0.36 0.36 62 1011.6
20260509223603 18 236 11.3 16.1 0.00 0.36 0.36 61 1011.7
20260509223100 18 281 17.7 24.1 0.00 0.36 0.36 62 1011.7
20260509222556 18 268 11.3 12.9 0.00 0.36 0.36 61 1011.9
20260509222052 18 246 8.0 20.9 0.00 0.36 0.36 61 1011.9
20260509221548 18 253 11.3 16.1 0.00 0.36 0.36 62 1011.9
20260509221044 17 234 4.8 8.0 0.00 0.36 0.36 62 1012.0
20260509220540 18 229 14.5 20.9 0.00 0.36 0.36 61 1012.0
20260509220037 18 206 4.8 4.8 0.00 0.36 0.36 62 1012.0
20260509215532 18 227 11.3 12.9 0.00 0.36 0.36 61 1012.0
20260509215030 19 243 8.0 11.3 0.00 0.36 0.36 61 1012.0
20260509214527 18 248 11.3 14.5 0.00 0.36 0.36 61 1012.0
20260509214023 18 221 11.3 12.9 0.00 0.36 0.36 64 1012.0
20260509213520 17 240 8.0 11.3 0.00 0.36 0.36 64 1012.1
20260509213017 18 232 12.9 14.5 0.00 0.36 0.36 63 1012.0
20260509212514 17 221 1.6 1.6 0.00 0.36 0.36 65 1012.1
20260509212011 17 221 8.0 11.3 0.00 0.36 0.36 64 1011.5
20260509211506 18 284 9.7 12.9 0.00 0.36 0.36 62 1012.0
20260509211003 18 244 9.7 11.3 0.00 0.36 0.36 63 1012.1
20260509210500 17 230 6.4 11.3 0.00 0.36 0.36 65 1012.0
20260509205955 18 238 6.4 9.7 0.00 0.36 0.36 66 1012.0
20260509205450 18 185 3.2 4.8 0.00 0.36 0.36 65 1012.1
20260509204946 18 185 11.3 14.5 0.00 0.36 0.36 63 1011.9
20260509204443 17 221 4.8 4.8 0.00 0.36 0.36 66 1011.7
20260509203939 17 244 4.8 4.8 0.00 0.36 0.36 67 1012.2
20260509203435 17 282 8.0 9.7 0.00 0.36 0.36 66 1012.0
20260509202933 17 272 6.4 8.0 0.00 0.36 0.36 67 1012.3
20260509202429 17 241 1.6 3.2 0.00 0.36 0.36 71 1012.2
20260509201924 17 231 3.2 4.8 0.00 0.36 0.36 71 1012.3
20260509201419 16 242 4.8 4.8 0.00 0.36 0.36 69 1012.0
20260509200917 16 267 6.4 8.0 0.00 0.36 0.36 70 1012.3
20260509200416 17 297 4.8 8.0 0.00 0.36 0.36 69 1012.2
20260509195913 17 318 8.0 9.7 0.00 0.36 0.36 67 1012.4
20260509195408 17 270 6.4 8.0 0.00 0.36 0.36 70 1012.6
20260509194902 16 235 9.7 12.9 0.00 0.36 0.36 70 1012.5
20260509194359 17 227 11.3 14.5 0.00 0.36 0.36 67 1012.5
20260509193855 17 219 6.4 8.0 0.00 0.36 0.36 68 1012.5
20260509193350 17 251 14.5 16.1 0.00 0.36 0.36 67 1012.3
20260509192846 17 258 9.7 12.9 0.00 0.36 0.36 71 1012.8
20260509192343 17 227 1.6 1.6 0.00 0.36 0.36 72 1012.5
20260509191838 16 236 9.7 12.9 0.00 0.36 0.36 69 1012.5
20260509191334 16 225 1.6 1.6 0.00 0.36 0.36 72 1012.6
20260509190830 16 298 4.8 9.7 0.00 0.36 0.36 72 1012.6
20260509190327 16 226 9.7 11.3 0.00 0.36 0.36 71 1012.6
20260509185825 16 233 4.8 4.8 0.00 0.36 0.36 70 1012.5
20260509185321 16 249 8.0 11.3 0.00 0.36 0.36 72 1012.6
20260509184818 16 226 8.0 9.7 0.00 0.36 0.36 73 1012.6
20260509184315 15 233 11.3 12.9 0.00 0.36 0.36 73 1012.4
20260509183812 15 186 4.8 4.8 0.00 0.36 0.36 73 1012.3
20260509183307 15 243 11.3 12.9 0.00 0.36 0.36 73 1012.5
20260509182803 15 213 11.3 12.9 0.00 0.36 0.36 74 1012.3
20260509182300 15 209 8.0 9.7 0.00 0.36 0.36 75 1012.5
20260509181757 15 235 6.4 8.0 0.00 0.36 0.36 74 1012.7
20260509181255 15 226 4.8 9.7 0.00 0.36 0.36 76 1012.4
20260509180752 15 224 3.2 4.8 0.00 0.36 0.36 76 1012.7
20260509180248 15 228 9.7 11.3 0.00 0.36 0.36 74 1012.4
20260509175745 15 238 9.7 11.3 0.00 0.36 0.36 74 1012.3
20260509175241 14 224 1.6 3.2 0.00 0.36 0.36 77 1012.6
20260509174737 14 226 6.4 8.0 0.00 0.36 0.36 76 1012.6
20260509174233 14 218 4.8 4.8 0.00 0.36 0.36 76 1012.5
20260509173729 13 217 4.8 4.8 0.00 0.36 0.36 76 1012.8
20260509173225 13 226 1.6 3.2 0.00 0.36 0.36 76 1012.5
20260509172721 13 204 8.0 11.3 0.00 0.36 0.36 77 1012.5
20260509172218 13 216 4.8 4.8 0.00 0.36 0.36 78 1012.5
20260509171713 13 211 3.2 3.2 0.00 0.36 0.36 77 1012.8
20260509171210 13 216 1.6 1.6 0.00 0.36 0.36 78 1012.6
20260509170707 13 203 3.2 3.2 0.00 0.36 0.36 79 1012.8
20260509170202 13 227 4.8 4.8 0.00 0.36 0.36 79 1012.8
20260509165701 13 204 3.2 3.2 0.00 0.36 0.36 80 1012.6
20260509165156 13 216 3.2 3.2 0.00 0.36 0.36 81 1012.7
20260509164653 13 228 1.6 1.6 0.00 0.36 0.36 81 1012.7
20260509164148 13 206 3.2 3.2 0.00 0.36 0.36 79 1012.9
20260509163646 13 217 1.6 1.6 0.00 0.36 0.36 80 1012.6
20260509163142 13 200 4.8 8.0 0.00 0.36 0.36 82 1012.7
20260509162640 13 216 3.2 3.2 0.00 0.36 0.36 85 1012.3
20260509162135 13 158 3.2 4.8 0.00 0.36 0.36 85 1012.5
20260509161631 12 157 4.8 8.0 0.00 0.36 0.36 85 1012.7
20260509161126 12 216 0.0 1.6 0.00 0.36 0.36 86 1013.0
20260509160623 12 216 0.0 1.6 0.00 0.36 0.36 86 1012.8
20260509160118 12 205 1.6 1.6 0.00 0.36 0.36 85 1012.9
20260509155615 12 215 1.6 3.2 0.00 0.36 0.36 86 1012.8
20260509155111 12 213 1.6 1.6 0.00 0.36 0.36 86 1012.9
20260509154607 12 215 3.2 3.2 0.00 0.36 0.36 85 1013.2
20260509154104 12 215 1.6 1.6 0.00 0.36 0.36 85 1013.3
20260509153601 12 215 4.8 4.8 0.00 0.36 0.36 82 1013.2
20260509153058 12 228 4.8 4.8 0.00 0.36 0.36 84 1013.0
20260509152554 12 201 1.6 3.2 0.00 0.36 0.36 86 1013.2
20260509152051 12 215 3.2 3.2 0.00 0.36 0.36 87 1013.0
20260509151547 12 205 3.2 3.2 0.00 0.36 0.36 87 1013.2
20260509151045 12 216 0.0 0.0 0.00 0.36 0.36 87 1013.3
20260509150543 12 216 1.6 1.6 0.00 0.36 0.36 86 1013.4
20260509150041 12 210 3.2 4.8 0.00 0.36 0.36 85 1013.3
20260509145536 11 211 3.2 4.8 0.00 0.36 0.36 86 1013.2
20260509145031 12 224 1.6 1.6 0.00 0.36 0.36 87 1013.3
20260509144529 11 216 1.6 1.6 0.00 0.36 0.36 87 1013.2
20260509144026 11 205 3.2 3.2 0.00 0.36 0.36 88 1013.4
20260509143522 11 215 0.0 1.6 0.00 0.36 0.36 89 1013.3
20260509143021 11 215 0.0 0.0 0.00 0.36 0.36 89 1013.3
20260509142516 11 215 1.6 1.6 0.00 0.36 0.36 89 1013.3
20260509142011 11 216 0.0 1.6 0.00 0.36 0.36 89 1013.1
20260509141508 11 212 1.6 3.2 0.00 0.36 0.36 89 1013.2
20260509141005 11 218 0.0 0.0 0.00 0.36 0.36 89 1013.3
20260509140502 11 211 1.6 1.6 0.00 0.36 0.36 89 1013.3
20260509140000 11 219 1.6 3.2 0.00 0.36 0.36 89 1013.3
20260509135457 11 224 3.2 3.2 0.13 0.36 0.36 89 1013.3
20260509134954 11 216 1.6 1.6 0.13 0.36 0.36 89 1013.5
20260509134451 11 226 3.2 3.2 0.00 0.33 0.33 89 1013.4
20260509133949 11 216 1.6 1.6 0.00 0.33 0.33 89 1013.5
20260509133445 11 216 0.0 0.0 0.00 0.33 0.33 89 1013.4
20260509132943 11 203 1.6 3.2 0.00 0.33 0.33 89 1013.3
20260509132441 11 200 3.2 3.2 0.00 0.33 0.33 89 1013.4
20260509131938 11 204 1.6 3.2 0.00 0.33 0.33 89 1013.4
20260509131435 11 215 3.2 3.2 0.00 0.33 0.33 89 1013.6
20260509130932 11 216 3.2 3.2 0.00 0.33 0.33 89 1013.5
20260509130427 10 190 4.8 4.8 0.18 0.33 0.33 89 1013.4
20260509125924 10 172 6.4 8.0 0.18 0.33 0.33 90 1013.4
20260509125421 10 213 1.6 1.6 0.00 0.30 0.30 91 1013.8
20260509124917 10 205 1.6 3.2 0.13 0.30 0.30 90 1013.9
20260509124414 10 202 1.6 3.2 0.13 0.30 0.30 90 1013.8
20260509123912 10 222 4.8 8.0 0.18 0.28 0.28 90 1014.1
20260509123409 10 233 6.4 9.7 0.18 0.28 0.28 90 1013.8
20260509122904 10 216 3.2 3.2 0.00 0.25 0.25 91 1013.9
20260509122402 10 201 3.2 3.2 0.00 0.25 0.25 90 1013.8
20260509121858 10 196 3.2 3.2 0.13 0.25 0.25 90 1013.8
20260509121355 10 215 3.2 3.2 0.13 0.25 0.25 91 1013.9
20260509120854 10 204 1.6 1.6 0.00 0.23 0.23 91 1013.8
20260509120351 10 213 4.8 4.8 0.00 0.23 0.23 91 1014.1
20260509115849 10 199 3.2 3.2 0.18 0.23 0.23 91 1014.1
20260509115346 10 211 1.6 3.2 0.18 0.23 0.23 90 1013.9
20260509114844 10 205 1.6 3.2 0.00 0.20 0.20 89 1013.9
20260509114342 10 225 1.6 1.6 0.00 0.20 0.20 88 1013.9
20260509113841 10 217 0.0 0.0 0.00 0.20 0.20 87 1013.8
20260509113337 10 222 3.2 4.8 0.00 0.20 0.20 87 1013.7
20260509112834 10 199 3.2 3.2 0.00 0.20 0.20 89 1013.7
20260509112331 10 196 4.8 4.8 0.00 0.20 0.20 88 1013.5
20260509111828 10 204 1.6 3.2 0.00 0.20 0.20 88 1013.7
20260509111325 10 186 4.8 4.8 0.13 0.20 0.20 89 1013.5
20260509110823 10 204 3.2 3.2 0.13 0.20 0.20 89 1013.5
20260509110319 10 215 0.0 0.0 0.00 0.18 0.18 88 1013.5
20260509105817 10 215 1.6 1.6 0.00 0.18 0.18 88 1013.4
20260509105315 10 204 1.6 1.6 0.00 0.18 0.18 88 1013.2
20260509104812 10 208 3.2 4.8 0.00 0.18 0.18 90 1013.4
20260509104308 10 163 6.4 8.0 0.00 0.18 0.18 90 1013.6
20260509103806 10 186 3.2 4.8 0.18 0.18 0.18 90 1013.3
20260509103303 10 186 1.6 3.2 0.18 0.18 0.18 91 1013.5
20260509102802 10 177 3.2 3.2 0.00 0.15 0.15 92 1013.5
20260509102259 10 210 1.6 3.2 0.00 0.15 0.15 92 1013.4
20260509101755 10 215 1.6 1.6 0.00 0.15 0.15 92 1013.7
20260509101251 10 254 1.6 3.2 0.00 0.15 0.15 91 1013.6
20260509100748 10 203 1.6 1.6 0.00 0.15 0.15 90 1013.5
20260509100246 10 211 3.2 3.2 0.13 0.15 0.15 90 1013.5
20260509095742 10 230 1.6 1.6 0.13 0.15 0.15 89 1013.8
20260509095240 10 216 1.6 1.6 0.00 0.13 0.13 89 1013.9
20260509094737 10 228 1.6 1.6 0.18 0.13 0.13 88 1013.9
20260509094233 10 216 1.6 1.6 0.18 0.13 0.13 88 1013.9
20260509093731 10 213 1.6 1.6 0.00 0.10 0.10 88 1013.8
20260509093228 10 216 0.0 1.6 0.18 0.10 0.10 88 1014.1
20260509092727 10 215 0.0 0.0 0.18 0.10 0.10 88 1014.3
20260509092224 10 216 0.0 0.0 0.00 0.08 0.08 88 1013.9
20260509091722 10 193 3.2 3.2 0.00 0.08 0.08 87 1014.1
20260509091218 10 214 1.6 3.2 0.00 0.08 0.08 86 1014.3
20260509090716 10 224 0.0 1.6 0.00 0.08 0.08 86 1014.3
20260509090213 10 227 0.0 0.0 0.00 0.08 0.08 85 1014.3
20260509085711 10 235 4.8 4.8 0.13 0.08 0.08 84 1014.4
20260509085207 11 225 1.6 1.6 0.30 0.08 0.08 84 1014.1
20260509084704 11 216 1.6 1.6 0.30 0.05 0.05 82 1013.9
20260509084201 11 216 0.0 1.6 0.13 0.03 0.03 81 1014.3
20260509083659 11 225 8.0 9.7 0.00 0.00 0.00 78 1014.2
20260509083154 12 211 8.0 9.7 0.00 0.00 0.00 76 1014.4
20260509082652 12 233 8.0 11.3 0.00 0.00 0.00 74 1014.4
20260509082148 12 294 14.5 29.0 0.00 0.00 0.00 70 1014.6
20260509081645 13 267 8.0 9.7 0.00 0.00 0.00 67 1014.1
20260509081143 13 214 3.2 3.2 0.00 0.00 0.00 66 1013.9
20260509080641 13 239 8.0 11.3 0.00 0.00 0.00 64 1013.8
20260509080138 13 220 6.4 8.0 0.00 0.00 0.00 63 1013.3
20260509075636 14 251 6.4 8.0 0.00 0.00 0.00 61 1013.3
20260509075134 14 234 12.9 17.7 0.00 0.00 0.00 59 1013.1
20260509074631 14 178 8.0 9.7 0.00 0.00 0.00 59 1013.0
20260509074127 14 223 4.8 4.8 0.00 0.00 0.00 58 1012.8
20260509073624 14 220 8.0 11.3 0.00 0.00 0.00 56 1012.5
20260509073120 15 179 6.4 11.3 0.00 0.00 0.00 55 1012.8
20260509072617 15 241 14.5 16.1 0.00 0.00 0.00 54 1012.8
20260509072114 15 227 14.5 24.1 0.00 0.00 0.00 51 1012.7
20260509071610 15 201 11.3 11.3 0.00 0.00 0.00 50 1012.7
20260509071108 15 215 11.3 14.5 0.00 0.00 0.00 49 1012.7
20260509070605 15 208 4.8 4.8 0.00 0.00 0.00 49 1012.6
20260509070101 15 206 4.8 4.8 0.00 0.00 0.00 49 1012.5
20260509065556 15 216 11.3 16.1 0.00 0.00 0.00 48 1012.6
20260509065053 15 225 8.0 12.9 0.00 0.00 0.00 49 1012.5
20260509064550 15 231 8.0 9.7 0.00 0.00 0.00 48 1012.4
20260509064048 15 242 8.0 14.5 0.00 0.00 0.00 49 1012.6
20260509063544 15 183 4.8 4.8 0.00 0.00 0.00 50 1012.4
20260509063041 15 176 4.8 8.0 0.00 0.00 0.00 50 1012.6
20260509062538 15 188 8.0 9.7 0.00 0.00 0.00 50 1012.8
20260509062036 15 193 4.8 8.0 0.00 0.00 0.00 50 1012.7
20260509061532 15 214 1.6 3.2 0.00 0.00 0.00 51 1012.7
20260509061030 15 193 6.4 8.0 0.00 0.00 0.00 50 1012.9
20260509060527 15 201 3.2 4.8 0.00 0.00 0.00 51 1012.7
20260509060022 15 209 3.2 3.2 0.00 0.00 0.00 50 1012.8
20260509055518 15 211 3.2 3.2 0.00 0.00 0.00 50 1012.8
20260509055014 15 203 4.8 4.8 0.00 0.00 0.00 49 1013.1
20260509054511 15 220 4.8 4.8 0.00 0.00 0.00 49 1013.1
20260509054009 15 198 4.8 8.0 0.00 0.00 0.00 49 1013.1
20260509053507 15 213 1.6 1.6 0.00 0.00 0.00 51 1013.0
20260509053004 15 206 3.2 3.2 0.00 0.00 0.00 50 1013.0
20260509052501 15 202 1.6 1.6 0.00 0.00 0.00 50 1013.1
20260509051959 15 219 0.0 1.6 0.00 0.00 0.00 51 1013.4
20260509051457 15 205 3.2 3.2 0.00 0.00 0.00 51 1013.6
20260509050954 15 216 3.2 3.2 0.00 0.00 0.00 50 1013.3
20260509050450 15 209 3.2 3.2 0.00 0.00 0.00 49 1013.5
20260509045947 15 219 6.4 8.0 0.00 0.00 0.00 49 1013.6